20-04-2023, 00:00:00,     52,    0.8,    3.2,   0.00,   0.00, 1020.8,   69.1, -999.0
20-04-2023, 00:00:11,     27,    1.1,    3.2,   0.00,   0.00, 1020.7,   69.2, -999.0
20-04-2023, 00:00:20,     43,    0.9,    3.1,   0.00,   0.00, 1020.7,   69.0, -999.0
20-04-2023, 00:00:30,     43,    0.6,    3.2,   0.00,   0.00, 1020.7,   68.9, -999.0
20-04-2023, 00:00:40,     43,    0.0,    3.1,   0.00,   0.00, 1020.6,   68.7, -999.0
20-04-2023, 00:00:50,     43,    0.0,    3.1,   0.00,   0.00, 1020.6,   68.8, -999.0
20-04-2023, 00:01:00,     43,    0.0,    3.1,   0.00,   0.00, 1020.6,   68.7, -999.0
20-04-2023, 00:01:10,     43,    0.0,    3.0,   0.00,   0.00, 1020.6,   68.6, -999.0
20-04-2023, 00:01:20,     43,    0.0,    3.0,   0.00,   0.00, 1020.6,   68.6, -999.0
20-04-2023, 00:01:30,     26,    0.3,    3.0,   0.00,   0.00, 1020.6,   68.7, -999.0
20-04-2023, 00:01:40,     59,    1.0,    3.0,   0.00,   0.00, 1020.8,   69.1, -999.0
20-04-2023, 00:01:50,     62,    0.3,    3.0,   0.00,   0.00, 1020.7,   69.0, -999.0
20-04-2023, 00:02:00,     33,    2.4,    3.2,   0.00,   0.00, 1020.7,   69.3, -999.0
20-04-2023, 00:02:10,     46,    1.3,    3.2,   0.00,   0.00, 1020.7,   69.3, -999.0
20-04-2023, 00:02:20,     46,    0.1,    3.2,   0.00,   0.00, 1020.7,   69.3, -999.0
20-04-2023, 00:02:30,     46,    0.0,    3.1,   0.00,   0.00, 1020.6,   69.2, -999.0
20-04-2023, 00:02:40,     46,    0.0,    3.1,   0.00,   0.00, 1020.6,   69.0, -999.0
20-04-2023, 00:02:50,     46,    0.0,    3.0,   0.00,   0.00, 1020.6,   68.9, -999.0
20-04-2023, 00:03:00,     46,    0.0,    3.0,   0.00,   0.00, 1020.6,   68.9, -999.0
20-04-2023, 00:03:10,     35,    0.6,    2.9,   0.00,   0.00, 1020.7,   69.1, -999.0
20-04-2023, 00:03:20,     63,    1.8,    3.0,   0.00,   0.00, 1020.8,   69.5, -999.0
20-04-2023, 00:03:30,     65,    0.8,    3.1,   0.00,   0.00, 1020.7,   69.3, -999.0
20-04-2023, 00:03:40,     65,    0.0,    3.1,   0.00,   0.00, 1020.6,   69.2, -999.0
20-04-2023, 00:03:50,     65,    0.0,    3.0,   0.00,   0.00, 1020.6,   69.2, -999.0
20-04-2023, 00:04:00,     64,    0.0,    3.0,   0.00,   0.00, 1020.6,   69.2, -999.0
20-04-2023, 00:04:10,     65,    0.0,    3.0,   0.00,   0.00, 1020.6,   69.1, -999.0
20-04-2023, 00:04:20,     65,    0.0,    3.0,   0.00,   0.00, 1020.6,   69.1, -999.0
20-04-2023, 00:04:30,     65,    0.0,    3.0,   0.00,   0.00, 1020.6,   69.2, -999.0
20-04-2023, 00:04:40,     60,    0.0,    3.0,   0.00,   0.00, 1020.6,   69.4, -999.0
20-04-2023, 00:04:50,      1,    0.9,    3.0,   0.00,   0.00, 1020.7,   69.6, -999.0
20-04-2023, 00:05:00,      2,    0.0,    3.0,   0.00,   0.00, 1020.6,   69.5, -999.0
20-04-2023, 00:05:10,     49,    0.8,    3.0,   0.00,   0.00, 1020.7,   69.8, -999.0
20-04-2023, 00:05:20,     54,    0.6,    2.9,   0.00,   0.00, 1020.7,   69.7, -999.0
20-04-2023, 00:05:30,     61,    0.6,    3.0,   0.00,   0.00, 1020.7,   70.0, -999.0
20-04-2023, 00:05:40,     37,    0.1,    3.0,   0.00,   0.00, 1020.6,   70.2, -999.0
20-04-2023, 00:05:50,     42,    2.3,    3.1,   0.00,   0.00, 1020.8,   70.5, -999.0
20-04-2023, 00:06:00,     41,    0.5,    3.1,   0.00,   0.00, 1020.7,   70.6, -999.0
20-04-2023, 00:06:10,     41,    0.3,    3.1,   0.00,   0.00, 1020.7,   70.4, -999.0
20-04-2023, 00:06:20,     41,    0.6,    3.0,   0.00,   0.00, 1020.7,   70.5, -999.0
20-04-2023, 00:06:29,     56,    2.3,    3.2,   0.00,   0.00, 1020.7,   70.7, -999.0
20-04-2023, 00:06:40,     56,    0.4,    3.2,   0.00,   0.00, 1020.7,   70.5, -999.0
20-04-2023, 00:06:50,     55,    0.0,    3.2,   0.00,   0.00, 1020.6,   70.5, -999.0
20-04-2023, 00:06:59,     55,    0.0,    3.1,   0.00,   0.00, 1020.7,   70.5, -999.0
20-04-2023, 00:07:10,     55,    0.0,    3.2,   0.00,   0.00, 1020.6,   70.4, -999.0
20-04-2023, 00:07:20,     55,    0.0,    3.1,   0.00,   0.00, 1020.6,   70.5, -999.0
20-04-2023, 00:07:30,     55,    0.1,    3.1,   0.00,   0.00, 1020.7,   70.3, -999.0
20-04-2023, 00:07:39,     55,    0.0,    3.1,   0.00,   0.00, 1020.6,   70.1, -999.0
20-04-2023, 00:07:50,     55,    0.0,    3.2,   0.00,   0.00, 1020.6,   70.2, -999.0
20-04-2023, 00:08:00,     47,    0.1,    3.1,   0.00,   0.00, 1020.7,   70.5, -999.0
20-04-2023, 00:08:09,     47,    0.0,    3.1,   0.00,   0.00, 1020.6,   70.4, -999.0
20-04-2023, 00:08:19,     47,    0.0,    3.1,   0.00,   0.00, 1020.6,   70.4, -999.0
20-04-2023, 00:08:30,     46,    0.0,    3.0,   0.00,   0.00, 1020.6,   70.3, -999.0
20-04-2023, 00:08:40,     42,    0.4,    3.2,   0.00,   0.00, 1020.7,   70.5, -999.0
20-04-2023, 00:08:49,     35,    2.8,    3.3,   0.00,   0.00, 1020.7,   70.7, -999.0
20-04-2023, 00:08:59,     50,    2.0,    3.2,   0.00,   0.00, 1020.8,   70.6, -999.0
20-04-2023, 00:09:10,     44,    0.9,    3.0,   0.00,   0.00, 1020.8,   70.6, -999.0
20-04-2023, 00:09:19,     26,    2.6,    3.1,   0.00,   0.00, 1020.7,   70.5, -999.0
20-04-2023, 00:09:29,     26,    0.6,    3.0,   0.00,   0.00, 1020.7,   70.7, -999.0
20-04-2023, 00:09:39,     26,    0.1,    3.0,   0.00,   0.00, 1020.7,   70.5, -999.0
20-04-2023, 00:09:49,     25,    0.1,    2.9,   0.00,   0.00, 1020.7,   70.7, -999.0
20-04-2023, 00:09:59,     25,    0.0,    2.9,   0.00,   0.00, 1020.7,   70.7, -999.0
20-04-2023, 00:10:09,     25,    0.0,    2.9,   0.00,   0.00, 1020.6,   70.7, -999.0
20-04-2023, 00:10:20,     25,    0.0,    3.0,   0.00,   0.00, 1020.6,   70.8, -999.0
20-04-2023, 00:10:29,     26,    0.0,    2.8,   0.00,   0.00, 1020.6,   70.9, -999.0
20-04-2023, 00:10:39,     26,    0.0,    2.9,   0.00,   0.00, 1020.6,   71.0, -999.0
20-04-2023, 00:10:49,     26,    0.0,    2.9,   0.00,   0.00, 1020.6,   71.1, -999.0
20-04-2023, 00:10:59,     25,    0.1,    3.0,   0.00,   0.00, 1020.6,   71.3, -999.0
20-04-2023, 00:11:09,     25,    0.1,    2.9,   0.00,   0.00, 1020.7,   71.3, -999.0
20-04-2023, 00:11:19,     25,    1.0,    3.0,   0.00,   0.00, 1020.7,   71.4, -999.0
20-04-2023, 00:11:29,     25,    0.6,    2.9,   0.00,   0.00, 1020.7,   71.3, -999.0
20-04-2023, 00:11:39,     24,    0.0,    2.9,   0.00,   0.00, 1020.6,   71.2, -999.0
20-04-2023, 00:11:49,     24,    0.4,    3.0,   0.00,   0.00, 1020.7,   71.5, -999.0
20-04-2023, 00:11:59,      6,    1.1,    3.0,   0.00,   0.00, 1020.7,   71.8, -999.0
20-04-2023, 00:12:09,      6,    0.0,    2.9,   0.00,   0.00, 1020.6,   71.4, -999.0
20-04-2023, 00:12:19,      6,    0.0,    3.0,   0.00,   0.00, 1020.6,   71.5, -999.0
20-04-2023, 00:12:29,     43,    0.2,    3.0,   0.00,   0.00, 1020.7,   71.9, -999.0
20-04-2023, 00:12:39,     43,    0.4,    3.1,   0.00,   0.00, 1020.7,   72.1, -999.0
20-04-2023, 00:12:49,     44,    0.0,    3.0,   0.00,   0.00, 1020.6,   72.0, -999.0
20-04-2023, 00:12:59,     43,    0.1,    3.0,   0.00,   0.00, 1020.6,   71.9, -999.0
20-04-2023, 00:13:09,     43,    0.0,    3.0,   0.00,   0.00, 1020.6,   71.8, -999.0
20-04-2023, 00:13:19,     47,    0.6,    3.0,   0.00,   0.00, 1020.7,   72.0, -999.0
20-04-2023, 00:13:29,     33,    0.9,    3.0,   0.00,   0.00, 1020.7,   72.1, -999.0
20-04-2023, 00:13:39,     33,    0.4,    2.9,   0.00,   0.00, 1020.7,   71.9, -999.0
20-04-2023, 00:13:49,     33,    0.1,    2.8,   0.00,   0.00, 1020.7,   71.9, -999.0
20-04-2023, 00:13:59,     33,    0.0,    2.8,   0.00,   0.00, 1020.6,   71.7, -999.0
20-04-2023, 00:14:09,     34,    0.0,    2.8,   0.00,   0.00, 1020.6,   72.0, -999.0
20-04-2023, 00:14:19,     33,    0.0,    2.8,   0.00,   0.00, 1020.5,   72.0, -999.0
20-04-2023, 00:14:29,     33,    0.1,    2.9,   0.00,   0.00, 1020.6,   72.4, -999.0
20-04-2023, 00:14:39,     33,    0.0,    2.7,   0.00,   0.00, 1020.6,   72.3, -999.0
20-04-2023, 00:14:49,     33,    0.8,    2.9,   0.00,   0.00, 1020.7,   72.8, -999.0
20-04-2023, 00:14:59,     19,    0.7,    2.9,   0.00,   0.00, 1020.7,   72.8, -999.0
20-04-2023, 00:15:09,     18,    0.1,    2.8,   0.00,   0.00, 1020.7,   72.8, -999.0
20-04-2023, 00:15:19,     20,    0.0,    2.7,   0.00,   0.00, 1020.6,   72.6, -999.0
20-04-2023, 00:15:29,     32,    0.1,    2.8,   0.00,   0.00, 1020.6,   72.9, -999.0
20-04-2023, 00:15:39,     55,    1.0,    2.8,   0.00,   0.00, 1020.7,   73.1, -999.0
20-04-2023, 00:15:49,     71,    1.2,    2.9,   0.00,   0.00, 1020.7,   73.5, -999.0
20-04-2023, 00:15:58,     71,    0.1,    2.9,   0.00,   0.00, 1020.6,   73.4, -999.0
20-04-2023, 00:16:09,     50,    0.5,    2.9,   0.00,   0.00, 1020.7,   73.7, -999.0
20-04-2023, 00:16:19,     51,    0.1,    2.9,   0.00,   0.00, 1020.6,   73.5, -999.0
20-04-2023, 00:16:29,     51,    0.0,    2.9,   0.00,   0.00, 1020.6,   73.5, -999.0
20-04-2023, 00:16:38,      4,    1.2,    2.9,   0.00,   0.00, 1020.7,   73.8, -999.0
20-04-2023, 00:16:49,      3,    0.0,    2.9,   0.00,   0.00, 1020.6,   73.5, -999.0
20-04-2023, 00:16:59,     26,    0.0,    2.9,   0.00,   0.00, 1020.6,   73.7, -999.0
20-04-2023, 00:17:08,     25,    0.2,    2.9,   0.00,   0.00, 1020.7,   74.0, -999.0
20-04-2023, 00:17:18,     26,    0.0,    2.9,   0.00,   0.00, 1020.6,   73.6, -999.0
20-04-2023, 00:17:29,     25,    0.0,    2.9,   0.00,   0.00, 1020.6,   73.5, -999.0
20-04-2023, 00:17:39,     19,    0.0,    2.9,   0.00,   0.00, 1020.6,   73.5, -999.0
20-04-2023, 00:17:48,     38,    0.0,    2.9,   0.00,   0.00, 1020.5,   73.6, -999.0
20-04-2023, 00:17:58,     38,    0.2,    3.0,   0.00,   0.00, 1020.7,   74.0, -999.0
20-04-2023, 00:18:09,     38,    0.0,    3.0,   0.00,   0.00, 1020.6,   73.9, -999.0
20-04-2023, 00:18:18,     38,    0.0,    3.0,   0.00,   0.00, 1020.6,   73.9, -999.0
20-04-2023, 00:18:28,     38,    0.1,    3.0,   0.00,   0.00, 1020.6,   73.8, -999.0
20-04-2023, 00:18:38,     38,    0.3,    3.0,   0.00,   0.00, 1020.6,   73.9, -999.0
20-04-2023, 00:18:49,     38,    0.0,    2.8,   0.00,   0.00, 1020.6,   73.7, -999.0
20-04-2023, 00:18:58,     38,    0.0,    2.8,   0.00,   0.00, 1020.5,   73.5, -999.0
20-04-2023, 00:19:08,     35,    0.0,    2.9,   0.00,   0.00, 1020.5,   73.6, -999.0
20-04-2023, 00:19:18,     38,    0.0,    2.9,   0.00,   0.00, 1020.6,   73.7, -999.0
20-04-2023, 00:19:28,     37,    0.0,    2.8,   0.00,   0.00, 1020.5,   73.6, -999.0
20-04-2023, 00:19:38,      8,    0.6,    2.9,   0.00,   0.00, 1020.6,   73.8, -999.0
20-04-2023, 00:19:48,     29,    1.9,    2.8,   0.00,   0.00, 1020.6,   74.1, -999.0
20-04-2023, 00:19:58,     26,    2.2,    2.8,   0.00,   0.00, 1020.7,   74.2, -999.0
20-04-2023, 00:20:08,      0,    0.9,    2.8,   0.00,   0.00, 1020.7,   74.5, -999.0
20-04-2023, 00:20:18,     34,    0.8,    2.6,   0.00,   0.00, 1020.7,   74.7, -999.0
20-04-2023, 00:20:28,     35,    0.6,    2.8,   0.00,   0.00, 1020.7,   74.8, -999.0
20-04-2023, 00:20:38,     35,    0.1,    2.7,   0.00,   0.00, 1020.6,   74.7, -999.0
20-04-2023, 00:20:48,     35,    0.0,    2.7,   0.00,   0.00, 1020.5,   74.6, -999.0
20-04-2023, 00:20:58,     34,    0.1,    2.7,   0.00,   0.00, 1020.6,   74.8, -999.0
20-04-2023, 00:21:08,     34,    0.0,    2.7,   0.00,   0.00, 1020.5,   74.7, -999.0
20-04-2023, 00:21:18,     34,    0.0,    2.7,   0.00,   0.00, 1020.5,   74.9, -999.0
20-04-2023, 00:21:28,     34,    0.0,    2.7,   0.00,   0.00, 1020.5,   75.0, -999.0
20-04-2023, 00:21:38,     34,    0.0,    2.7,   0.00,   0.00, 1020.6,   75.0, -999.0
20-04-2023, 00:21:48,     34,    1.2,    2.8,   0.00,   0.00, 1020.7,   75.4, -999.0
20-04-2023, 00:21:58,     34,    1.3,    2.8,   0.00,   0.00, 1020.7,   75.5, -999.0
20-04-2023, 00:22:08,     34,    1.5,    2.8,   0.00,   0.00, 1020.7,   75.5, -999.0
20-04-2023, 00:22:18,      9,    1.3,    2.7,   0.00,   0.00, 1020.7,   75.5, -999.0
20-04-2023, 00:22:28,     43,    0.7,    2.7,   0.00,   0.00, 1020.6,   75.6, -999.0
20-04-2023, 00:22:38,     43,    0.4,    2.7,   0.00,   0.00, 1020.6,   75.7, -999.0
20-04-2023, 00:22:48,     43,    1.0,    2.7,   0.00,   0.00, 1020.6,   75.7, -999.0
20-04-2023, 00:22:58,     43,    0.0,    2.6,   0.00,   0.00, 1020.5,   75.6, -999.0
20-04-2023, 00:23:08,     43,    0.0,    2.6,   0.00,   0.00, 1020.5,   75.5, -999.0
20-04-2023, 00:23:18,     43,    0.0,    2.7,   0.00,   0.00, 1020.5,   75.7, -999.0
20-04-2023, 00:23:28,     43,    0.0,    2.7,   0.00,   0.00, 1020.5,   75.8, -999.0
20-04-2023, 00:23:38,     43,    0.0,    2.7,   0.00,   0.00, 1020.5,   75.9, -999.0
20-04-2023, 00:23:48,     43,    0.0,    2.8,   0.00,   0.00, 1020.5,   75.9, -999.0
20-04-2023, 00:23:58,     43,    0.0,    2.8,   0.00,   0.00, 1020.5,   76.1, -999.0
20-04-2023, 00:24:08,     43,    0.0,    2.8,   0.00,   0.00, 1020.5,   76.0, -999.0
20-04-2023, 00:24:18,     27,    0.8,    2.9,   0.00,   0.00, 1020.6,   76.3, -999.0
20-04-2023, 00:24:27,     27,    0.0,    2.8,   0.00,   0.00, 1020.5,   75.9, -999.0
20-04-2023, 00:24:38,     27,    0.0,    2.7,   0.00,   0.00, 1020.5,   75.7, -999.0
20-04-2023, 00:24:48,     27,    0.5,    2.8,   0.00,   0.00, 1020.5,   75.8, -999.0
20-04-2023, 00:24:57,     20,    1.1,    2.9,   0.00,   0.00, 1020.6,   76.2, -999.0
20-04-2023, 00:25:08,      0,    1.6,    2.8,   0.00,   0.00, 1020.6,   76.1, -999.0
20-04-2023, 00:25:18,      2,    1.1,    2.9,   0.00,   0.00, 1020.6,   76.2, -999.0
20-04-2023, 00:25:28,      2,    0.1,    2.8,   0.00,   0.00, 1020.5,   76.1, -999.0
20-04-2023, 00:25:37,      2,    0.0,    2.7,   0.00,   0.00, 1020.4,   75.8, -999.0
20-04-2023, 00:25:48,     45,    1.2,    2.7,   0.00,   0.00, 1020.5,   76.2, -999.0
20-04-2023, 00:25:58,     28,    1.7,    2.7,   0.00,   0.00, 1020.5,   76.4, -999.0
20-04-2023, 00:26:07,     27,    0.5,    2.7,   0.00,   0.00, 1020.6,   76.4, -999.0
20-04-2023, 00:26:17,     37,    0.6,    2.6,   0.00,   0.00, 1020.5,   76.3, -999.0
20-04-2023, 00:26:28,     38,    0.1,    2.6,   0.00,   0.00, 1020.5,   76.3, -999.0
20-04-2023, 00:26:38,     37,    0.0,    2.6,   0.00,   0.00, 1020.4,   76.2, -999.0
20-04-2023, 00:26:47,     37,    0.0,    2.6,   0.00,   0.00, 1020.4,   76.5, -999.0
20-04-2023, 00:26:57,     37,    0.0,    2.6,   0.00,   0.00, 1020.4,   76.5, -999.0
20-04-2023, 00:27:08,     38,    0.0,    2.6,   0.00,   0.00, 1020.5,   76.7, -999.0
20-04-2023, 00:27:17,     37,    0.0,    2.6,   0.00,   0.00, 1020.4,   76.8, -999.0
20-04-2023, 00:27:27,     38,    0.0,    2.7,   0.00,   0.00, 1020.5,   76.8, -999.0
20-04-2023, 00:27:37,     37,    0.0,    2.6,   0.00,   0.00, 1020.4,   76.7, -999.0
20-04-2023, 00:27:47,     38,    0.0,    2.6,   0.00,   0.00, 1020.4,   76.7, -999.0
20-04-2023, 00:27:57,     38,    0.0,    2.7,   0.00,   0.00, 1020.4,   76.8, -999.0
20-04-2023, 00:28:07,     37,    0.0,    2.7,   0.00,   0.00, 1020.4,   76.9, -999.0
20-04-2023, 00:28:18,     38,    0.0,    2.7,   0.00,   0.00, 1020.5,   76.9, -999.0
20-04-2023, 00:28:27,     38,    0.0,    2.6,   0.00,   0.00, 1020.4,   76.8, -999.0
20-04-2023, 00:28:37,     37,    0.0,    2.7,   0.00,   0.00, 1020.4,   76.8, -999.0
20-04-2023, 00:28:47,     38,    0.3,    2.8,   0.00,   0.00, 1020.5,   77.0, -999.0
20-04-2023, 00:28:57,     27,    2.4,    2.8,   0.00,   0.00, 1020.6,   77.1, -999.0
20-04-2023, 00:29:07,     40,    1.8,    2.8,   0.00,   0.00, 1020.6,   76.9, -999.0
20-04-2023, 00:29:17,     40,    0.0,    2.6,   0.00,   0.00, 1020.5,   76.4, -999.0
20-04-2023, 00:29:27,     40,    0.0,    2.6,   0.00,   0.00, 1020.4,   76.6, -999.0
20-04-2023, 00:29:37,     40,    0.0,    2.6,   0.00,   0.00, 1020.5,   76.7, -999.0
20-04-2023, 00:29:47,     40,    0.0,    2.7,   0.00,   0.00, 1020.4,   76.8, -999.0
20-04-2023, 00:29:57,     40,    0.0,    2.7,   0.00,   0.00, 1020.5,   76.8, -999.0
20-04-2023, 00:30:07,     40,    0.0,    2.6,   0.00,   0.00, 1020.4,   77.0, -999.0
20-04-2023, 00:30:17,     40,    0.0,    2.6,   0.00,   0.00, 1020.4,   77.0, -999.0
20-04-2023, 00:30:27,     41,    0.0,    2.7,   0.00,   0.00, 1020.5,   77.1, -999.0
20-04-2023, 00:30:37,     30,    3.1,    2.7,   0.00,   0.00, 1020.6,   77.3, -999.0
20-04-2023, 00:30:47,     21,    1.4,    2.7,   0.00,   0.00, 1020.6,   77.4, -999.0
20-04-2023, 00:30:57,     54,    0.7,    2.7,   0.00,   0.00, 1020.5,   77.4, -999.0
20-04-2023, 00:31:07,     55,    0.5,    2.7,   0.00,   0.00, 1020.5,   77.6, -999.0
20-04-2023, 00:31:17,     54,    0.2,    2.7,   0.00,   0.00, 1020.5,   77.6, -999.0
20-04-2023, 00:31:27,     54,    0.0,    2.6,   0.00,   0.00, 1020.4,   77.5, -999.0
20-04-2023, 00:31:37,     47,    2.0,    2.6,   0.00,   0.00, 1020.6,   77.9, -999.0
20-04-2023, 00:31:47,     20,    2.2,    2.7,   0.00,   0.00, 1020.6,   77.8, -999.0
20-04-2023, 00:31:57,     34,    2.1,    2.6,   0.00,   0.00, 1020.5,   77.8, -999.0
20-04-2023, 00:32:07,     34,    2.3,    2.5,   0.00,   0.00, 1020.5,   77.9, -999.0
20-04-2023, 00:32:17,     33,    2.2,    2.6,   0.00,   0.00, 1020.6,   78.1, -999.0
20-04-2023, 00:32:27,     15,    2.1,    2.5,   0.00,   0.00, 1020.5,   78.3, -999.0
20-04-2023, 00:32:37,     16,    1.7,    2.5,   0.00,   0.00, 1020.6,   78.3, -999.0
20-04-2023, 00:32:47,     15,    0.1,    2.4,   0.00,   0.00, 1020.4,   78.1, -999.0
20-04-2023, 00:32:57,     27,    1.1,    2.5,   0.00,   0.00, 1020.5,   78.4, -999.0
20-04-2023, 00:33:07,     27,    0.6,    2.5,   0.00,   0.00, 1020.5,   78.7, -999.0
20-04-2023, 00:33:17,     27,    0.1,    2.5,   0.00,   0.00, 1020.4,   78.6, -999.0
20-04-2023, 00:33:27,     22,    0.6,    2.6,   0.00,   0.00, 1020.5,   79.0, -999.0
20-04-2023, 00:33:37,      0,    1.4,    2.5,   0.00,   0.00, 1020.5,   79.1, -999.0
20-04-2023, 00:33:47,     28,    0.7,    2.5,   0.00,   0.00, 1020.5,   78.8, -999.0
20-04-2023, 00:33:56,     28,    0.5,    2.6,   0.00,   0.00, 1020.5,   78.9, -999.0
20-04-2023, 00:34:07,     23,    0.9,    2.4,   0.00,   0.00, 1020.5,   79.0, -999.0
20-04-2023, 00:34:17,     24,    0.3,    2.5,   0.00,   0.00, 1020.5,   79.0, -999.0
20-04-2023, 00:34:27,     23,    0.0,    2.5,   0.00,   0.00, 1020.4,   78.9, -999.0
20-04-2023, 00:34:36,     23,    0.6,    2.5,   0.00,   0.00, 1020.5,   79.1, -999.0
20-04-2023, 00:34:47,     24,    0.2,    2.4,   0.00,   0.00, 1020.4,   79.0, -999.0
20-04-2023, 00:34:57,     33,    1.4,    2.5,   0.00,   0.00, 1020.5,   79.4, -999.0
20-04-2023, 00:35:06,     33,    0.4,    2.4,   0.00,   0.00, 1020.5,   79.2, -999.0
20-04-2023, 00:35:16,     33,    0.5,    2.4,   0.00,   0.00, 1020.5,   79.4, -999.0
20-04-2023, 00:35:27,     33,    0.6,    2.4,   0.00,   0.00, 1020.5,   79.4, -999.0
20-04-2023, 00:35:37,     70,    0.1,    2.5,   0.00,   0.00, 1020.4,   79.6, -999.0
20-04-2023, 00:35:46,     26,    1.4,    2.6,   0.00,   0.00, 1020.5,   80.0, -999.0
20-04-2023, 00:35:57,     10,    2.3,    2.6,   0.00,   0.00, 1020.5,   80.0, -999.0
20-04-2023, 00:36:07,     28,    0.8,    2.6,   0.00,   0.00, 1020.6,   79.8, -999.0
20-04-2023, 00:36:16,     45,    0.6,    2.6,   0.00,   0.00, 1020.6,   79.9, -999.0
20-04-2023, 00:36:26,     45,    0.8,    2.6,   0.00,   0.00, 1020.6,   80.1, -999.0
20-04-2023, 00:36:37,     52,    1.2,    2.6,   0.00,   0.00, 1020.5,   80.3, -999.0
20-04-2023, 00:36:46,     52,    0.2,    2.6,   0.00,   0.00, 1020.4,   79.9, -999.0
20-04-2023, 00:36:56,     51,    0.1,    2.6,   0.00,   0.00, 1020.5,   80.1, -999.0
20-04-2023, 00:37:06,     51,    0.2,    2.6,   0.00,   0.00, 1020.5,   80.1, -999.0
20-04-2023, 00:37:16,     51,    0.2,    2.6,   0.00,   0.00, 1020.5,   80.1, -999.0
20-04-2023, 00:37:26,     56,    0.0,    2.6,   0.00,   0.00, 1020.4,   79.7, -999.0
20-04-2023, 00:37:36,     38,    1.1,    2.6,   0.00,   0.00, 1020.5,   79.9, -999.0
20-04-2023, 00:37:46,     34,    1.7,    2.5,   0.00,   0.00, 1020.5,   79.9, -999.0
20-04-2023, 00:37:56,     30,    1.6,    2.5,   0.00,   0.00, 1020.5,   79.9, -999.0
20-04-2023, 00:38:06,     29,    1.2,    2.5,   0.00,   0.00, 1020.5,   79.7, -999.0
20-04-2023, 00:38:16,     29,    0.4,    2.6,   0.00,   0.00, 1020.5,   79.8, -999.0
20-04-2023, 00:38:26,     27,    1.8,    2.6,   0.00,   0.00, 1020.5,   79.8, -999.0
20-04-2023, 00:38:36,     27,    0.6,    2.5,   0.00,   0.00, 1020.5,   79.7, -999.0
20-04-2023, 00:38:46,     26,    0.3,    2.6,   0.00,   0.00, 1020.5,   79.8, -999.0
20-04-2023, 00:38:56,     26,    0.3,    2.6,   0.00,   0.00, 1020.5,   79.8, -999.0
20-04-2023, 00:39:06,     27,    0.0,    2.5,   0.00,   0.00, 1020.5,   79.6, -999.0
20-04-2023, 00:39:16,     27,    0.6,    2.6,   0.00,   0.00, 1020.5,   80.0, -999.0
20-04-2023, 00:39:26,     27,    0.6,    2.5,   0.00,   0.00, 1020.5,   79.9, -999.0
20-04-2023, 00:39:36,     27,    0.5,    2.4,   0.00,   0.00, 1020.5,   79.8, -999.0
20-04-2023, 00:39:46,     48,    0.3,    2.4,   0.00,   0.00, 1020.5,   79.8, -999.0
20-04-2023, 00:39:56,     48,    0.7,    2.5,   0.00,   0.00, 1020.5,   80.2, -999.0
20-04-2023, 00:40:06,     48,    1.5,    2.4,   0.00,   0.00, 1020.5,   80.7, -999.0
20-04-2023, 00:40:16,     24,    2.7,    2.6,   0.00,   0.00, 1020.5,   80.8, -999.0
20-04-2023, 00:40:26,     26,    1.1,    2.6,   0.00,   0.00, 1020.5,   80.7, -999.0
20-04-2023, 00:40:36,     32,    0.3,    2.4,   0.00,   0.00, 1020.5,   80.5, -999.0
20-04-2023, 00:40:46,     28,    2.5,    2.5,   0.00,   0.00, 1020.6,   80.6, -999.0
20-04-2023, 00:40:56,     44,    2.0,    2.3,   0.00,   0.00, 1020.6,   80.6, -999.0
20-04-2023, 00:41:06,     43,    0.2,    2.4,   0.00,   0.00, 1020.5,   80.6, -999.0
20-04-2023, 00:41:16,     43,    0.0,    2.4,   0.00,   0.00, 1020.4,   80.5, -999.0
20-04-2023, 00:41:26,     22,    1.3,    2.6,   0.00,   0.00, 1020.5,   81.1, -999.0
20-04-2023, 00:41:36,     18,    1.3,    2.6,   0.00,   0.00, 1020.6,   81.1, -999.0
20-04-2023, 00:41:46,     52,    1.6,    2.5,   0.00,   0.00, 1020.6,   81.0, -999.0
20-04-2023, 00:41:56,     52,    0.6,    2.4,   0.00,   0.00, 1020.5,   80.7, -999.0
20-04-2023, 00:42:06,     52,    0.0,    2.4,   0.00,   0.00, 1020.4,   80.5, -999.0
20-04-2023, 00:42:16,     40,    0.2,    2.4,   0.00,   0.00, 1020.5,   80.7, -999.0
20-04-2023, 00:42:26,     18,    2.1,    2.5,   0.00,   0.00, 1020.5,   81.3, -999.0
20-04-2023, 00:42:36,     41,    1.0,    2.5,   0.00,   0.00, 1020.6,   81.2, -999.0
20-04-2023, 00:42:46,     32,    0.7,    2.5,   0.00,   0.00, 1020.5,   81.0, -999.0
20-04-2023, 00:42:56,     32,    0.1,    2.4,   0.00,   0.00, 1020.5,   80.8, -999.0
20-04-2023, 00:43:06,     32,    0.0,    2.4,   0.00,   0.00, 1020.5,   80.7, -999.0
20-04-2023, 00:43:16,     32,    0.8,    2.4,   0.00,   0.00, 1020.6,   80.9, -999.0
20-04-2023, 00:43:25,     32,    1.6,    2.4,   0.00,   0.00, 1020.6,   81.1, -999.0
20-04-2023, 00:43:36,     57,    2.9,    2.4,   0.00,   0.00, 1020.6,   81.3, -999.0
20-04-2023, 00:43:46,     25,    2.5,    2.4,   0.00,   0.00, 1020.6,   81.5, -999.0
20-04-2023, 00:43:55,     23,    1.3,    2.4,   0.00,   0.00, 1020.6,   81.7, -999.0
20-04-2023, 00:44:05,     24,    0.3,    2.1,   0.00,   0.00, 1020.5,   81.6, -999.0
20-04-2023, 00:44:16,     23,    0.2,    2.4,   0.00,   0.00, 1020.5,   81.7, -999.0
20-04-2023, 00:44:26,     32,    0.5,    2.4,   0.00,   0.00, 1020.6,   81.8, -999.0
20-04-2023, 00:44:35,     18,    1.3,    2.5,   0.00,   0.00, 1020.6,   81.9, -999.0
20-04-2023, 00:44:46,      9,    0.2,    2.5,   0.00,   0.00, 1020.5,   81.7, -999.0
20-04-2023, 00:44:56,      9,    0.0,    2.3,   0.00,   0.00, 1020.4,   81.4, -999.0
20-04-2023, 00:45:05,     16,    0.2,    2.3,   0.00,   0.00, 1020.5,   81.7, -999.0
20-04-2023, 00:45:15,     19,    0.0,    2.3,   0.00,   0.00, 1020.4,   81.5, -999.0
20-04-2023, 00:45:26,     38,    0.3,    2.4,   0.00,   0.00, 1020.5,   81.9, -999.0
20-04-2023, 00:45:36,      0,    0.5,    2.5,   0.00,   0.00, 1020.5,   82.3, -999.0
20-04-2023, 00:45:45,      0,    0.6,    2.4,   0.00,   0.00, 1020.5,   82.2, -999.0
20-04-2023, 00:45:55,      0,    0.1,    2.4,   0.00,   0.00, 1020.5,   82.0, -999.0
20-04-2023, 00:46:06,      0,    0.3,    2.4,   0.00,   0.00, 1020.5,   82.1, -999.0
20-04-2023, 00:46:15,      0,    0.1,    2.4,   0.00,   0.00, 1020.5,   82.0, -999.0
20-04-2023, 00:46:25,      3,    0.2,    2.4,   0.00,   0.00, 1020.5,   82.0, -999.0
20-04-2023, 00:46:35,     57,    0.4,    2.4,   0.00,   0.00, 1020.5,   82.0, -999.0
20-04-2023, 00:46:45,     53,    1.3,    2.4,   0.00,   0.00, 1020.6,   82.1, -999.0